Hourly Weather Roundup
Issued by NWS Central Illinois

Home | Current Version | Previous Version | Text Only | Print | Product List | Glossary On
Versions: 1 2 3 4 5 6 7 8 9 10 11 12 13 14 15 16 17 18 19 20 21 22 23 24 25 26 27 28 29 30 31 32 33 34 35 36 37 38 39 40 41 42 43 44 45 46 47 48 49 50
000
NZUS43 KILX 021010
HWRILX

AREA WEATHER ROUNDUP
NATIONAL WEATHER SERVICE, LINCOLN IL
500 AM CDT WED SEP 02 2015


CITY           SKY/WX    TMP DP  RH WIND       PRES   REMARKS
BLOOMINGTON    CLEAR     71  70  97 SW7       30.08R
CHAMPAIGN      CLEAR     68  67  96 S3        30.09R FOG
DANVILLE       RAIN      65  64  99 CALM      30.06S
DECATUR        CLEAR     71  67  87 SW5       30.08R
EFFINGHAM      CLEAR     67  65  92 CALM      30.10R FOG
FLORA          CLEAR     65  65  97 SE3       30.08S FOG
GALESBURG      CLEAR     70  67  92 SE6       30.04S
JACKSONVILLE   CLEAR     74  71  91 S5        30.06S
LACON          CLEAR     69  67  92 CALM      30.04R
LAWRENCEVILLE  FOG       66  65  96 CALM      30.09S VSB 1
LITCHFIELD     CLEAR     67  65  94 S3        30.08R FOG
$$


CITY           SKY/WX    TMP DP  RH WIND       PRES   REMARKS
LINCOLN        CLEAR     69  67  92 CALM      30.07R FOG
MACOMB         CLEAR     72  69  89 SW6       30.06S
MATTOON        HAZE      72  67  84 SW5       30.08R VSB 1
MT CARMEL AP   FOG       63  63 100 CALM      30.09R VSB 1/2
OLNEY-NOBLE AP FOG       64  64 100 CALM      30.09R VSB 1/4
PARIS          CLEAR     65  64  99 CALM      30.10R FOG
PEORIA         CLEAR     72  68  87 S5        30.05S FOG
PONTIAC        CLEAR     72  71  96 S6        30.06S
RANTOUL        CLEAR     71  69  94 SW3       30.08S
ROBINSON       CLEAR     65  64  97 CALM      30.09S FOG
SPRINGFIELD    CLEAR     72  69  90 SW5       30.07R
TAYLORVILLE    CLEAR     68  66  94 CALM      30.08R
$$

...REGIONAL REPORTS...


CITY           SKY/WX    TMP DP  RH WIND       PRES   REMARKS
CHICAGO O`HARE PTCLDY    73  68  84 SW7       30.02S
KANKAKEE       CLEAR     66  66  98 S5        30.06S FOG
MOLINE         CLEAR     71  66  84 CALM      30.01F
MOUNT STERLING CLEAR     70  68  94 S5        30.05S
MOUNT VERNON     N/A     64  61  88 CALM      30.09S VSB 1/4
PITTSFIELD     CLEAR     70  68  92 S3        30.08R
QUINCY         CLEAR     72  68  87 S6        30.04S
ROCKFORD       MOCLDY    69  66  90 S5        30.04R
$$


CITY           SKY/WX    TMP DP  RH WIND       PRES   REMARKS
BURLINGTON     PTCLDY    70  68  93 SW6       30.03R
CEDAR RAPIDS   PTCLDY    69  69 100 S5        30.00S
DES MOINES     TSTM      72  68  87 NW9       29.98S
KIRKSVILLE     MOCLDY    69  66  90 S6        30.04R
OTTUMWA        CLOUDY    71  69  93 S7        29.98S
ST LOUIS       CLEAR     76  68  76 CALM      30.08R
$$


CITY           SKY/WX    TMP DP  RH WIND       PRES   REMARKS
TERRE HAUTE    CLEAR     64  62  93 CALM      30.09S FOG
EVANSVILLE     CLEAR     69  67  93 CALM      30.10R FOG
INDIANAPOLIS   CLEAR     69  66  90 S6        30.09R
LAFAYETTE      CLEAR     67  66  97 CALM      30.07S FOG
MADISON        PTCLDY    74  68  81 CALM      30.00R
MILWAUKEE      PTCLDY    75  68  78 W5        30.00S
$$




USA.gov is the U.S. government's official web portal to all federal, state and local government web resources and services.